TimePST,TemperatureF,Dew PointF,Humidity,Sea Level PressureIn,VisibilityMPH,Wind Direction,Wind SpeedMPH,Gust SpeedMPH,PrecipitationIn,Events,Conditions,WindDirDegrees,DateUTC
12:53 AM,35.1,17.1,48,30.25,10.0,North,3.5,-,N/A,,Overcast,350,2014-01-24 08:53:00
1:53 AM,30.0,17.1,59,30.30,10.0,WNW,3.5,-,N/A,,Clear,300,2014-01-24 09:53:00
2:53 AM,28.9,16.0,58,30.31,10.0,Calm,Calm,-,N/A,,Clear,0,2014-01-24 10:53:00
3:53 AM,28.0,17.1,63,30.32,10.0,Calm,Calm,-,N/A,,Clear,0,2014-01-24 11:53:00
4:53 AM,24.1,16.0,71,30.36,10.0,Calm,Calm,-,N/A,,Clear,0,2014-01-24 12:53:00
5:53 AM,25.0,16.0,69,30.36,10.0,Calm,Calm,-,N/A,,Clear,0,2014-01-24 13:53:00
6:53 AM,24.1,16.0,71,30.37,10.0,Calm,Calm,-,N/A,,Clear,0,2014-01-24 14:53:00
7:53 AM,23.0,16.0,74,30.38,10.0,Calm,Calm,-,N/A,,Clear,0,2014-01-24 15:53:00
8:53 AM,30.0,18.0,61,30.38,10.0,Calm,Calm,-,N/A,,Clear,0,2014-01-24 16:53:00
9:53 AM,39.0,19.9,46,30.35,10.0,Calm,Calm,-,N/A,,Clear,0,2014-01-24 17:53:00
10:53 AM,44.1,19.0,37,30.35,10.0,NNE,3.5,-,N/A,,Mostly Cloudy,20,2014-01-24 18:53:00
11:53 AM,46.9,18.0,32,30.32,10.0,NNE,6.9,-,N/A,,Overcast,30,2014-01-24 19:53:00
12:53 PM,46.9,18.0,32,30.30,10.0,NNE,8.1,-,N/A,,Overcast,30,2014-01-24 20:53:00
1:53 PM,48.9,19.0,31,30.30,10.0,Calm,Calm,-,N/A,,Clear,0,2014-01-24 21:53:00
2:53 PM,48.0,19.9,33,30.32,10.0,Variable,3.5,-,N/A,,Clear,0,2014-01-24 22:53:00
3:53 PM,46.9,19.0,33,30.33,10.0,NNE,3.5,-,N/A,,Clear,20,2014-01-24 23:53:00
4:53 PM,39.0,19.0,45,30.39,10.0,Calm,Calm,-,N/A,,Clear,0,2014-01-25 00:53:00
5:53 PM,35.1,19.9,54,30.41,10.0,Calm,Calm,-,N/A,,Clear,0,2014-01-25 01:53:00
6:53 PM,32.0,19.9,61,30.45,10.0,South,4.6,-,N/A,,Clear,190,2014-01-25 02:53:00
7:53 PM,30.0,19.9,66,30.46,10.0,South,3.5,-,N/A,,Clear,190,2014-01-25 03:53:00
8:53 PM,28.9,19.0,67,30.44,10.0,Calm,Calm,-,N/A,,Clear,0,2014-01-25 04:53:00
9:53 PM,28.0,19.0,69,30.42,10.0,Calm,Calm,-,N/A,,Clear,0,2014-01-25 05:53:00
10:53 PM,27.0,19.0,72,30.41,10.0,Calm,Calm,-,N/A,,Clear,0,2014-01-25 06:53:00
11:53 PM,26.1,19.0,75,30.40,10.0,Calm,Calm,-,N/A,,Clear,0,2014-01-25 07:53:00